www.pogodaiklimat.ru

Погода и климат >> Архив погоды >> Австрия >> Куфштайн


ПОГОДА в Куфштайне

  • Прогноз погоды в Куфштайне
  • Монитор погоды в Куфштайне

АРХИВ ПОГОДЫ в Куфштайне

Время (UTC), дата Ветер
(напр.,м/с)
 
Видим.   Явления Облачность Т
(С)
Тd
(С)
f
(%)
Тe
(С)
Тes
(С)
Комфортность P
(гПа)
Po
(гПа)
Тmin
(С)
Tmax
(С)
R
(мм)
R24
(мм)
S
(см)
10 12.06 В 4 н/о н/о +22.9 +16.2 66 +27 +27 душно 1003.6 948.9
11 12.06 В 5 н/о н/о +22.3 +15.0 63 +26 +26 жарко 1005.0 950.1
12 12.06 В 5 н/о н/о +21.5 +14.4 64 +24 +24 комфорт 1006.5 951.3
13 12.06 В 5
{13}
н/о н/о +19.3 +12.7 66 +20 +20 1008.4 952.7
14 12.06 СВ 6
{13}
н/о н/о +20.1 +11.8 59 +22 +22 комфорт 1009.3 953.7
15 12.06 СВ 4
{13}
н/о н/о +19.5 +11.4 59 +21 +21 комфорт 1010.2 954.4
16 12.06 СВ 4 н/о н/о +19.9 +11.5 58 +21 +21 комфорт 1010.1 954.4
17 12.06 СВ 3 н/о н/о +19.6 +11.8 61 +21 +21 комфорт 1010.1 954.3
18 12.06 СВ 3
{13}
н/о н/о +19.3 +11.8 62 +21 +21 комфорт 1010.5 954.6 +15.2 +23.2
19 12.06 В 3 н/о н/о +18.4 +11.8 65 +19 +19 1010.7 954.7
20 12.06 В 3 н/о н/о +17.9 +12.1 69 +18 +18 1011.5 955.3
21 12.06 В 3 н/о н/о +17.3 +12.5 73 +17 +17 1012.5 956.2
22 12.06 В 4 н/о н/о +16.8 +12.4 75 +16 +16 1013.3 956.8
23 12.06 СВ 4 н/о н/о +16.2 +12.0 76 +15 +15 1013.4 956.8
00 13.06 В 3 н/о н/о +15.9 +12.0 78 +15 +15 1013.6 956.9
01 13.06 СВ 3 н/о н/о +15.5 +11.6 78 +15 +15 1013.8 957.0
02 13.06 СВ 2 н/о н/о +15.3 +11.3 77 +15 +15 1013.9 957.1
03 13.06 СВ 2 н/о н/о +14.9 +10.9 77 +15 +15 1014.2 957.3
04 13.06 СВ 2 н/о н/о +14.7 +10.7 77 +14 +14 1014.6 957.6
05 13.06 СВ 3 12 км 8/3 1500 м
[Cu hum Ac trans]
+14.7 +11.3 80 +14 +14 1015.0 958.0 +14.5 +14.7
06 13.06 СВ 2 н/о н/о +15.5 +11.3 76 +15 +15 1015.0 958.2 +14.5 +19.4
07 13.06 СВ 2 н/о н/о +18.1 +10.8 62 +19 +19 1014.0 957.7
08 13.06 СВ 2 н/о н/о +19.0 +10.7 59 +20 +20 1013.4 957.3
09 13.06 В 3 н/о н/о +20.3 +10.2 52 +22 +22 комфорт 1012.5 956.7
10 13.06 В 4 н/о н/о +21.6 +11.8 54 +24 +24 комфорт 1011.4 955.9
11 13.06 СВ 4 н/о н/о +22.6 +12.5 53 +25 +25 комфорт 1010.9 955.6
12 13.06 СВ 4 н/о н/о +23.8 +12.8 50 +26 +26 жарко 1010.2 955.2
13 13.06 СВ 5 н/о н/о +24.1 +12.7 49 +26 +26 жарко 1010.1 955.2
14 13.06 СВ 5 н/о н/о +24.4 +12.9 49 +26 +26 жарко 1010.4 955.5
15 13.06 СВ 5 н/о н/о +24.5 +12.8 48 +26 +26 жарко 1010.7 955.8
16 13.06 СВ 5 н/о н/о +24.0 +13.1 51 +26 +26 жарко 1011.2 956.2
17 13.06 СВ 4 н/о н/о +23.3 +13.3 53 +26 +26 жарко 1011.9 956.7
18 13.06 СВ 3 н/о н/о +22.7 +13.6 56 +26 +26 жарко 1012.7 957.4 +15.2 +24.9
19 13.06 СВ 3 н/о н/о +22.3 +13.4 57 +25 +25 комфорт 1013.5 958.1
20 13.06 СВ 2 н/о н/о +21.5 +13.5 60 +24 +24 комфорт 1014.9 959.2
21 13.06 СВ 1 н/о н/о +19.9 +13.4 66 +23 +23 комфорт 1015.6 959.6
22 13.06 штиль 0 н/о н/о +17.7 +13.0 74 +18 +18 1016.5 960.0
23 13.06 штиль 0 н/о н/о +16.5 +13.0 80 +16 +16 1017.1 960.4
00 14.06 ЮЗ 1 н/о н/о +15.3 +12.6 84 +16 +16 1017.7 960.7
01 14.06 штиль 0 н/о н/о +14.3 +12.3 88 +14 +14 1018.0 960.8
02 14.06 ЮЗ 1 н/о н/о +13.8 +12.2 90 +14 +14 1018.2 960.9
03 14.06 штиль 0 н/о н/о +13.0 +11.8 92 +12 +12 1018.8 961.3
04 14.06 З 1 н/о н/о +13.2 +11.9 92 +13 +13 1018.9 961.4
05 14.06 З 1 н/о н/о +14.3 +12.0 86 +15 +15 1018.7 961.4
06 14.06 ЮЗ 2 н/о н/о +17.0 +12.7 76 +17 +17 1017.9 961.2 +12.5 +22.9
07 14.06 ЮЗ 2 н/о н/о +19.1 +11.7 62 +21 +21 комфорт 1017.2 960.9
08 14.06 З 3 н/о н/о +20.9 +11.7 56 +23 +23 комфорт 1016.2 960.3
09 14.06 ЮЗ 2 н/о н/о +24.1 +11.9 46 +26 +26 жарко 1014.9 959.7
10 14.06 штиль 0 н/о н/о +26.6 +11.2 38 +28 +28 жарко 1014.0 959.3
11 14.06 З 1 н/о н/о +27.8 +12.3 38 +29 +29 жарко 1013.3 958.8
12 14.06 СВ 1 н/о н/о +29.8 +12.8 35 +31 +31 жарко 1011.8 957.8
13 14.06 З 2 н/о н/о +31.4 +11.8 30 +32 +32 жарко 1010.7 957.0
14 14.06 З 1 н/о н/о +32.3 +11.9 29 +33 +33 жарко 1009.8 956.3
15 14.06 З 1 н/о н/о +32.1 +15.3 36 +34 +34 душно 1009.0 955.6
16 14.06 штиль 0 н/о н/о +32.8 +12.1 28 +33 +33 жарко 1008.5 955.1
17 14.06 Ю 1 н/о н/о +31.2 +16.7 42 +35 +35 очень
душно
1008.3 954.8
18 14.06 СВ 1 н/о н/о +28.5 +14.3 42 +31 +31 душно 1008.8 954.7 +16.8 +32.8
19 14.06 В 1 н/о н/о +25.0 +13.7 49 +27 +27 жарко 1009.6 954.9
20 14.06 штиль 0 н/о н/о +23.2 +12.8 52 +26 +26 жарко 1009.8 954.7
21 14.06 штиль 0 н/о н/о +22.0 +13.5 59 +25 +25 комфорт 1010.5 955.2
22 14.06 З 1 н/о н/о +21.0 +12.7 59 +25 +25 комфорт 1011.4 955.8
23 14.06 ЮЗ 1 н/о н/о +20.0 +12.0 60 +23 +23 комфорт 1011.4 955.6
00 15.06 ЮЗ 1 н/о н/о +19.2 +11.6 61 +21 +21 комфорт 1011.3 955.4
01 15.06 штиль 0 н/о н/о +18.1 +11.4 65 +18 +18 1011.8 955.6
02 15.06 З 1 н/о н/о +17.8 +11.4 66 +19 +19 1011.3 955.1
03 15.06 З 1 н/о н/о +17.9 +10.9 64 +19 +19 1010.9 954.7
04 15.06 З 1 н/о н/о +17.3 +11.0 66 +18 +18 1011.0 954.7
05 15.06 штиль 0 н/о н/о +17.0 +11.2 69 +17 +17 1011.6 955.2
06 15.06 штиль 0 н/о н/о +17.9 +12.0 68 +18 +18 1011.8 955.6 +16.5 +29.5
07 15.06 З 1 н/о н/о +21.3 +11.6 54 +23 +23 комфорт 1011.3 955.8
08 15.06 ЮЗ 1 н/о н/о +24.8 +12.6 47 +27 +27 жарко 1010.8 955.9
09 15.06 СВ 3 н/о н/о +26.6 +13.3 44 +29 +29 жарко 1010.9 956.4
10 15.06 В 4 н/о н/о +25.4 +13.9 49 +28 +28 жарко 1011.1 956.4
11 15.06 СВ 4 н/о н/о +26.6 +13.9 46 +29 +29 жарко 1011.1 956.6 0.0
12 15.06 В 4 н/о в посл. час осадки н/о +24.1 +15.2 58 +27 +27 жарко 1012.0 957.0 0.2
13 15.06 В 4 н/о в посл. час осадки н/о +25.5 +14.0 49 +28 +28 жарко 1011.7 956.9 0.2
14 15.06 СВ 3 н/о н/о +25.2 +13.1 47 +27 +27 жарко 1012.3 957.4
15 15.06 СВ 2 н/о в посл. час осадки н/о +25.3 +14.7 52 +28 +28 жарко 1012.1 957.3 0.3
16 15.06 СВ 2 н/о н/о +25.3 +15.1 53 +28 +28 жарко 1011.8 957.0 0.0
17 15.06 В 2 н/о н/о +24.2 +14.6 55 +27 +27 жарко 1012.1 957.1
18 15.06 СВ 1 н/о {ливн. осадки} н/о +22.5 +16.3 68 +27 +27 душно 1012.4 957.1 +17.8 +27.1 0.5
19 15.06 СВ 1 н/о н/о +21.6 +16.4 72 +25 +25 комфорт 1012.6 957.1
20 15.06 штиль 0 н/о н/о +20.4 +16.1 76 +23 +23 комфорт 1013.3 957.6
21 15.06 штиль 0 н/о н/о +19.3 +15.8 80 +21 +21 комфорт 1013.4 957.5
22 15.06 штиль 0 н/о н/о +19.1 +15.6 80 +20 +20 1013.9 957.9
23 15.06 штиль 0 н/о н/о +18.6 +16.2 86 +19 +19 1014.6 958.5
00 16.06 СВ 4 н/о ливневой дождь н/о +17.3 +12.9 75 +17 +17 1016.7 960.1 1
01 16.06 СВ 3 н/о в посл. час осадки н/о +15.8 +12.7 82 +15 +15 1018.3 961.4 0.1
02 16.06 СВ 2 н/о н/о +15.7 +12.6 82 +16 +16 1018.8 961.8
03 16.06 СВ 1 н/о {осадки} н/о +15.3 +13.0 86 +16 +16 1018.9 961.8 0.1
04 16.06 В 1 н/о н/о +15.5 +12.9 84 +16 +16 1018.9 961.9
05 16.06 СВ 2 н/о н/о +15.4 +13.2 87 +15 +15 1019.4 962.3
06 16.06 СВ 2 н/о {осадки} н/о +16.1 +13.0 82 +16 +16 1019.6 962.7 +15.2 +22.6 2
07 16.06 СВ 2 н/о н/о +17.8 +12.4 71 +18 +18 1019.6 963.0
08 16.06 СВ 3 н/о н/о +17.7 +11.5 67 +18 +18 1020.1 963.4
09 16.06 СВ 3 н/о н/о +17.6 +11.6 68 +18 +18 1020.5 963.8
10 16.06 СВ 3 н/о н/о +18.3 +11.8 66 +19 +19 1020.4 963.8
11 16.06 СВ 3 н/о н/о +19.1 +11.6 62 +20 +20 1020.2 963.8
12 16.06 СВ 3 н/о н/о +19.8 +12.1 61 +22 +22 комфорт 1019.7 963.4
13 16.06 СВ 2 н/о н/о +20.2 +11.3 57 +23 +23 комфорт 1019.6 963.4
14 16.06 В 2 н/о н/о +19.2 +11.6 61 +21 +21 комфорт 1019.9 963.5
15 16.06 СВ 1 н/о н/о +19.1 +11.7 62 +21 +21 комфорт 1020.2 963.8
16 16.06 З 1 н/о н/о +19.1 +12.1 64 +21 +21 комфорт 1019.9 963.5
17 16.06 З 1 н/о н/о +19.1 +12.5 66 +21 +21 комфорт 1020.2 963.8
18 16.06 штиль 0 н/о н/о +18.9 +11.9 64 +20 +20 1020.5 964.0 +15.9 +20.3
19 16.06 штиль 0 н/о н/о +18.2 +12.5 69 +18 +18 1020.9 964.3
20 16.06 штиль 0 н/о н/о +17.3 +12.7 74 +17 +17 1021.3 964.5
21 16.06 штиль 0 н/о н/о +16.9 +12.6 76 +17 +17 1021.6 964.7
22 16.06 штиль 0 н/о н/о +16.6 +12.5 77 +17 +17 1021.7 964.7
23 16.06 штиль 0 н/о н/о +16.2 +12.6 79 +16 +16 1021.3 964.3
00 17.06 штиль 0 н/о н/о +15.8 +12.7 82 +16 +16 1021.3 964.2
01 17.06 штиль 0 н/о н/о +15.3 +12.9 86 +15 +15 1020.9 963.7
02 17.06 штиль 0 н/о н/о +13.6 +11.4 87 +13 +13 1021.0 963.5
03 17.06 штиль 0 н/о н/о +12.7 +11.1 90 +12 +12 1021.5 963.8
04 17.06 штиль 0 н/о н/о +12.5 +11.3 92 +12 +12 1021.6 963.8
05 17.06 ЮЗ 1 н/о н/о +13.3 +11.4 88 +13 +13 1021.6 964.0
06 17.06 штиль 0 н/о н/о +15.7 +12.3 80 +16 +16 1020.9 963.8 +12.2 +19.0
07 17.06 штиль 0 н/о н/о +17.2 +12.6 74 +17 +17 1020.2 963.4
08 17.06 ЮВ 1 н/о н/о +19.7 +13.1 66 +22 +22 комфорт 1018.7 962.5
09 17.06 В 1 н/о н/о +21.6 +12.7 57 +24 +24 комфорт 1017.8 962.0
10 17.06 В 2 н/о н/о +22.7 +13.4 56 +26 +26 жарко 1017.1 961.5
11 17.06 СВ 3 н/о н/о +23.4 +13.8 55 +27 +27 душно 1016.2 960.8
12 17.06 СВ 4 н/о н/о +24.1 +14.0 53 +26 +26 жарко 1015.5 960.3
13 17.06 СВ 3 н/о н/о +25.5 +14.6 51 +28 +28 жарко 1014.8 959.9
14 17.06 СВ 4 н/о н/о +25.7 +14.2 49 +28 +28 жарко 1014.0 959.2
15 17.06 СВ 3 н/о н/о +25.9 +14.3 49 +28 +28 жарко 1013.6 958.8
16 17.06 СВ 3 н/о н/о +26.0 +14.8 50 +29 +29 душно 1013.4 958.7
17 17.06 СВ 4 н/о н/о +25.1 +14.4 51 +28 +28 жарко 1013.6 958.7
18 17.06 СВ 2 н/о н/о +24.0 +14.2 54 +26 +26 жарко 1014.3 959.1 +15.1 +26.4
19 17.06 СВ 2 н/о н/о +23.0 +13.9 57 +26 +26 жарко 1014.6 959.2
20 17.06 СВ 2 н/о н/о +21.4 +13.9 62 +24 +24 комфорт 1015.4 959.7
21 17.06 В 1 н/о н/о +20.5 +14.1 67 +24 +24 комфорт 1015.7 959.8
22 17.06 штиль 0 н/о н/о +18.9 +14.1 74 +20 +20 1016.1 959.9
23 17.06 З 1 н/о н/о +17.9 +14.1 78 +19 +19 1016.3 959.9
00 18.06 штиль 0 н/о н/о +17.3 +14.0 81 +17 +17 1016.3 959.8
01 18.06 штиль 0 н/о н/о +16.3 +13.7 85 +16 +16 1016.4 959.7
02 18.06 штиль 0 н/о н/о +15.8 +13.4 86 +16 +16 1016.1 959.3
03 18.06 З 1 н/о н/о +15.7 +13.0 84 +16 +16 1016.3 959.5
04 18.06 ЮЗ 1 н/о н/о +15.1 +12.6 85 +16 +16 1016.5 959.5
05 18.06 З 1 н/о н/о +15.7 +12.6 82 +16 +16 1016.4 959.6
06 18.06 ЮЗ 1 н/о н/о +18.1 +13.5 74 +19 +19 1016.1 959.7 +15.0 +24.1
07 18.06 ЮЗ 2 н/о н/о +20.3 +13.4 65 +23 +23 комфорт 1015.6 959.7
08 18.06 Ю 1 н/о н/о +22.9 +13.1 54 +26 +26 жарко 1014.7 959.3
09 18.06 С 1 н/о н/о +24.7 +13.9 51 +27 +27 жарко 1013.8 958.8
10 18.06 СВ 2 н/о н/о +26.3 +13.4 45 +28 +28 жарко 1012.8 958.1
11 18.06 СВ 3 н/о н/о +27.6 +12.2 38 +29 +29 жарко 1011.7 957.3
12 18.06 СВ 3 н/о н/о +28.8 +11.7 35 +30 +30 жарко 1011.1 956.9
13 18.06 СВ 4 н/о н/о +29.1 +13.1 37 +30 +30 жарко 1010.8 956.7
14 18.06 СВ 4 н/о н/о +29.0 +13.1 38 +31 +31 жарко 1010.5 956.4
15 18.06 В 4 н/о н/о +29.1 +13.0 37 +30 +30 жарко 1010.1 956.0
16 18.06 СВ 3 н/о н/о +29.0 +10.1 31 +29 +29 жарко 1010.0 955.9
17 18.06 С 3 н/о н/о +27.8 +10.7 34 +28 +28 жарко 1010.2 955.9
18 18.06 СВ 2 н/о н/о +27.1 +12.6 41 +29 +29 жарко 1010.6 956.2 +17.5 +29.5
19 18.06 СВ 2 н/о н/о +26.3 +12.8 43 +28 +28 жарко 1010.9 956.3
20 18.06 СВ 1 н/о н/о +24.3 +13.1 50 +26 +26 жарко 1011.6 956.6
21 18.06 штиль 0 н/о н/о +20.9 +13.9 64 +23 +23 комфорт 1012.5 956.9
22 18.06 штиль 0 н/о н/о +19.4 +13.7 70 +21 +21 комфорт 1013.4 957.4
23 18.06 Ю 2 н/о н/о +20.0 +13.9 68 +23 +23 комфорт 1014.3 958.4
00 19.06 Ю 2 н/о н/о +19.7 +13.0 65 +22 +22 комфорт 1014.8 958.8 0.0
01 19.06 Ю 2 н/о н/о +18.3 +13.2 72 +19 +19 1015.2 958.9 0.0
02 19.06 ЮЗ 2 н/о в посл. час осадки н/о +17.0 +13.9 82 +17 +17 1014.9 958.4 0.5
03 19.06 ЮЗ 1 н/о {осадки} н/о +17.1 +13.7 80 +18 +18 1014.1 957.7 0.5
04 19.06 З 2 н/о н/о +17.3 +13.7 79 +18 +18 1014.2 957.8
05 19.06 ЮЗ 1 18 км {ливн. осадки} 9/1 300 м
[Sc Ac As]
+17.4 +14.1 81 +18 +19 1014.3 957.9 +17.2 +17.5
06 19.06 ЮЗ 2 н/о {осадки} н/о +18.4 +14.1 76 +19 +19 1013.8 957.6 +16.7 +27.1 0.5
07 19.06 ЮЗ 2 н/о н/о +18.8 +13.8 73 +20 +20 1013.6 957.5
08 19.06 ЮЗ 2 н/о н/о +20.1 +14.0 68 +23 +23 комфорт 1012.9 957.1

 

Местоположение метеостанции Куфштайн (Австрия): широта 47.58 долгота 12.17 высота над уровнем моря 493 м.

В архиве по умолчанию представлена погода в Куфштайне за последнюю неделю. Архивные данные за месяц целиком и за предыдущие месяцы, начиная с января 2011 года, Вы можете получить, выбрав интересующий диапазон дат из раскрывающегося списка и нажав кнопку "Ввод!".


*Определитесь, кто Вы:
робот инопланетянин человек

Внимание! Время в таблицах - всемирное. Для получения местного времени необходимо прибавить поправку, которая равна 1 ч.

Смотрите также архив погоды в соседних городах и на ближайших метеорологических станциях:

Погода в Ахенкирьхе (Австрия) (36 км)
Погода в Ахенкирьхе (Австрия) (36 км)
Погода в Лоферер Альме (Австрия) (36 км)
Погода в Енбахе (Австрия) (39 км)
Погода в Кримле (Австрия) (39 км)
Погода в Лофере (Австрия) (40 км)
Погода в Зальбах-Хинтерглемме (Австрия) (42 км)
Погода в Киминге (Германия) (43 км)
Погода на Шмиттенхёэ (Австрия) (50 км)
Погода в Майрхофене (Австрия) (52 км)

Пояснения к столбцам:

Ветер - указаны скорость ветра в м/с - средняя за 10 мин, порывы в срок и между сроками (в фигурных скобках) и направление, откуда дует ветер: С - северный, СВ - северо-восточный, В - восточный, ЮВ - юго-восточный, Ю - южный, ЮЗ - юго-западный, З - западный, СЗ - северо-западный.
Видимость - горизонтальная дальность видимости в метрах или километрах. При видимости от 1 до 10 км при отсутствии осадков обычно наблюдается дымка, при ухудшении видимости до 1 км и менее - туман. В сухую погоду видимость может ухудшаться дымом, пылью или мглою.
Явления - указаны атмосферные явления, наблюдавшиеся в срок или в последний час перед сроком; фигурными скобками обозначены явления, наблюдавшиеся между сроками (за 1-3 часа до срока); квадратными скобками обозначены град или гололедные отложения с указанием их диаметра в мм.
Облачность - указаны через наклонную черту общая и нижняя облачность в баллах и высота нижней границы облаков в метрах; квадратными скобками обозначены формы облаков: Ci - перистые, Cs - перисто-слоистые, Cc - перисто-кучевые, Ac - высококучевые, As - высокослоистые, Sc - слоисто-кучевые, Ns - слоисто-дождевые, Cu - кучевые, Cb - кучево-дождевые. Подробнее классификацию облаков см. в Атласе облаков (PDF).
T - Температура воздуха - температура, измеренная на высоте 2 м над землей.
Td - Температура точки росы - температура, при понижении до которой содержащийся в воздухе водяной пар достигнет насыщения.
f - Относительная влажность воздуха - влажноcть воздуха, измеренная на высоте 2 м над землей.
Te - Эффективная температура - температура, которую ощущает одетый по сезону человек в тени. Характеристика душности погоды. При расчете учитывается влияние влажности воздуха и скорости ветра на теплоощущения человека.
Tes - Эффективная температура на солнце - температура, которую ощущает человек, с поправкой на солнечный нагрев. Характеристика знойности погоды. Зависит от высоты солнца над горизонтом, облачности и скорости ветра. Ночью, в пасмурную погоду, а также при ветре 12 м/с и более поправка равна нулю.
P - Атмосферное давление - приведенное к уровню моря атмосферное давление.
Po - Атмосферное давление - измеренное на уровне метеостанции атмосферное давление.
Tmin - Минимальная температура - минимум температуры воздуха на высоте 2 м над землей.
Tmax - Максимальная температура - максимум температуры воздуха на высоте 2 м над землей.
R - Количество осадков - Количество выпавших осадков за период времени, мм. При наведении курсора мыши на число - период времени, за который выпало указанное количество осадков.
R24 - Количество осадков - Количество выпавших осадков за 24 часа, мм.
S - Снежный покров - Высота снежного покрова, см. При наведении курсора мыши на число - состояние снежного покрова и степень покрытия местности в баллах.